Regional Weather Roundup
Issued by NWS

Home | Current Version | Previous Version | Text Only | Print | Product List | Glossary Off
Versions: 1 2 3 4 5 6 7 8 9 10 11 12 13 14 15 16 17 18 19 20 21 22 23 24 25 26 27 28 29 30 31 32 33 34 35 36 37 38 39 40 41 42 43 44 45 46 47 48 49 50

000
ASUS43 KLOT 290503
RWRIL

ILLINOIS REGIONAL WEATHER ROUNDUP
NATIONAL WEATHER SERVICE CHICAGO/ROMEOVILLE IL
1200 AM CDT FRI APR 29 2016

NOTE: "FAIR" INDICATES FEW OR NO CLOUDS BELOW 12,000 FEET WITH NO
SIGNIFICANT WEATHER AND/OR OBSTRUCTIONS TO VISIBILITY.

* THESE STATIONS ARE NOT UNDER NWS QUALITY CONTROL. THEY ALSO MAY NOT
  REPORT WEATHER SUCH AS PRECIPITATION OR FOG.

ILZ001-002-007-009-015-016-024-290600-
NORTHWEST ILLINOIS

CITY           SKY/WX    TMP DP  RH WIND       PRES   REMARKS
MOLINE         CLOUDY    52  49  89 CALM      30.01R FOG
STERLING*      CLOUDY    45  43  93 E9        30.03R
$$

ILZ003-004-008-010-011-017-018-290600-
NORTH CENTRAL ILLINOIS

CITY           SKY/WX    TMP DP  RH WIND       PRES   REMARKS
ROCKFORD       CLOUDY    43  40  89 NE7       30.04R
FREEPORT*      CLOUDY    40  38  93 NE9       30.05S
ROCHELLE*      CLOUDY    42  41  94 NE9       30.03R FOG
DE KALB*       CLOUDY    42  41  96 NE7       30.03R FOG
$$

ILZ005-006-012>014-019>023-290600-
NORTHEAST ILLINOIS

CITY           SKY/WX    TMP DP  RH WIND       PRES   REMARKS
CHICAGO-OHARE  CLOUDY    42  41  96 N8        30.00S FOG
CHICAGO-MIDWAY CLOUDY    45  41  86 N6        30.00S FOG
AURORA         CLOUDY    44  41  89 NE6       30.01S FOG
LANSING*       CLOUDY    46  42  88 N6        30.00S FOG
WAUKEGAN       LGT RAIN  41  40  96 N6        30.02R FOG
DUPAGE AIRPORT CLOUDY    43  39  86 NE7       30.01R
WHEELING       CLOUDY    42  41  96 N5        30.03R FOG
MORRIS*        CLOUDY    46  42  88 CALM      30.01R FOG
NORTHERLY ISL    N/A     43  41  93 MISG        N/A
NORTHERLY ISL    N/A     43  41  93 MISG        N/A
$$

LMZ740>746-290600-
SOUTHERN LAKE MICHIGAN

STATION/POSITION SKY/WX   TEMP    WIND        PRES    VSBY  WAVE
                          AIR SEA DIR/SP/G                  HT/PER
                          (F)     (DEG/KT/KT) (MB)    (MI)  (FT/S)
SOUTHERN BUOY              41 40   80/ 10/ 12 1016.5          2/ 4
HARRISON CRIB              44      10/  9/ 10   N/A
BURNHAM HARBOR             43     360/  8/  9   N/A
CALUMET HARBOR             44     340/  9/ 11 1015.4F
BURNS HARBOR               44     310/  5/  7 1016.3S
MICHIGAN CITY              45     210/  7/  7   N/A
ST. JOSEPH                 49 47  110/ 10/ 12   N/A           2/ 4
$$

ILZ025>027-034>036-040-047-049-050-058-095>099-290600-
WEST-CENTRAL ILLINOIS

CITY           SKY/WX    TMP DP  RH WIND       PRES   REMARKS
QUINCY         CLOUDY    54  47  77 W6        30.02S
MACOMB*        CLOUDY    53  49  87 W7        30.04S
PITTSFIELD*    CLEAR     55  49  79 W5        30.03S
$$

ILZ028>032-037-038-041>044-048-051>054-059>061-290600-
CENTRAL ILLINOIS

CITY           SKY/WX    TMP DP  RH WIND       PRES   REMARKS
BLOOMINGTON    CLOUDY    55  49  80 W5        30.01S
DECATUR        CLEAR     55  47  74 NW6       30.00S
PEORIA         CLOUDY    55  48  77 CALM      30.01S
LINCOLN*       CLOUDY    58  50  76 CALM      30.00F
SPRINGFIELD    CLEAR     55  51  86 W6        30.01S
TAYLORVILLE    NOT AVBL
$$

ILZ033-039-045-046-055>057-062-063-290600-
EAST-CENTRAL ILLINOIS

CITY           SKY/WX    TMP DP  RH WIND       PRES   REMARKS
CHAMPAIGN      CLEAR     50  47  89 NW6       30.00S
MATTOON        MOCLDY    53  48  83 NW5       30.00S
$$

ILZ079-100>102-290600-
SOUTHWEST ILLINOIS

CITY           SKY/WX    TMP DP  RH WIND       PRES   REMARKS
ALTON          CLEAR     53  49  88 CALM      30.02S
CAHOKIA*       CLEAR     58  48  69 N5        30.02S
SPARTA*        CLEAR     57  50  77 N3        30.04R
$$

ILZ064>066-069>071-074>076-080>082-084>086-088>090-092>094-290600-
SOUTH-CENTRAL ILLINOIS

CITY           SKY/WX    TMP DP  RH WIND       PRES   REMARKS
CARBONDALE     CLEAR     59  51  75 N6        30.01R
CAIRO*         CLEAR     59  57  93 CALM      29.99S
EFFINGHAM*     CLEAR     56  51  82 CALM      30.02S
MT. VERNON     CLEAR     57  46  67 CALM      30.02S
SALEM*         CLEAR     56  51  81 CALM      30.02S
$$

ILZ067-068-072-073-078-083-087-091-290600-
SOUTHEAST ILLINOIS

CITY           SKY/WX    TMP DP  RH WIND       PRES   REMARKS
LAWRENCEVILLE  CLEAR     59  51  75 N10       30.00R
FLORA*         CLEAR     58  52  80 NW5       30.01S
HARRISBURG*    CLEAR     60  53  77 CALM      30.01R
ROBINSON*      CLEAR     54  50  84 N5        30.01S
CARMI*         CLEAR     57  55  90 NW6       30.00R
$$

ABBREVIATIONS USED IN REMARKS
   TC - TEMPERATURE IN CELSIUS
  WCI - WIND CHILL INDEX
   HX - HEAT INDEX
  VSB - VISIBILITY
$$




USA.gov is the U.S. government's official web portal to all federal, state and local government web resources and services.